When you browse on this site, cookies collect data to enhance your experience and personalize the content and advertising you see.
Visit our Privacy Policy to learn more. By continuing to use the site, you agree to this use of cookies and data.
  • In France
  • List of Countries
  • For 7 days
  • Water Temperature
  • Satellite Maps
  • Weather Map
  • Weather Widgets
  • user-avatar
    Login

    Hourly Weather Potosi

    Today, 27 May, Monday

    Time Temperature Precipitation Wind Pressure Humidity
    00:00 +3°C° 0 mm 2 mps 464 mmHg 27%
    01:00 +3°C° 0 mm 2 mps 464 mmHg 27%
    02:00 +2°C° 0 mm 2 mps 463 mmHg 27%
    03:00 +1°C° 0 mm 3 mps 463 mmHg 26%
    04:00 0°C° 0 mm 3 mps 463 mmHg 26%
    05:00 0°C° 0 mm 3 mps 462 mmHg 26%
    06:00 +1°C° 0 mm 3 mps 463 mmHg 25%
    07:00 +2°C° 0 mm 3 mps 464 mmHg 24%
    08:00 +2°C° 0 mm 3 mps 465 mmHg 23%
    09:00 +4°C° 0 mm 6 mps 466 mmHg 20%
    10:00 +7°C° 0 mm 8 mps 468 mmHg 16%
    11:00 +11°C° 0 mm 11 mps 470 mmHg 12%
    12:00 +10°C° 0 mm 12 mps 469 mmHg 12%
    13:00 +12°C° 0 mm 12 mps 469 mmHg 12%
    14:00 +12°C° 0 mm 13 mps 469 mmHg 12%
    15:00 +10°C° 0 mm 12 mps 468 mmHg 13%
    16:00 +11°C° 0 mm 11 mps 467 mmHg 14%
    17:00 +9°C° 0 mm 10 mps 467 mmHg 15%
    18:00 +7°C° 0 mm 8 mps 466 mmHg 17%
    19:00 +5°C° 0 mm 6 mps 466 mmHg 19%
    20:00 +5°C° 0 mm 4 mps 465 mmHg 20%
    21:00 +4°C° 0 mm 3 mps 465 mmHg 21%
    22:00 +3°C° 0 mm 3 mps 465 mmHg 22%
    23:00 +3°C° 0 mm 2 mps 464 mmHg 23%

    Tomorrow, 28 May, Tuesday

    Time Temperature Precipitation Wind Pressure Humidity
    00:00 +3°C° 0 mm 2 mps 464 mmHg 22%
    01:00 +2°C° 0 mm 2 mps 464 mmHg 20%
    02:00 +2°C° 0 mm 2 mps 463 mmHg 19%
    03:00 +1°C° 0 mm 2 mps 463 mmHg 18%
    04:00 +1°C° 0 mm 2 mps 463 mmHg 17%
    05:00 0°C° 0 mm 3 mps 463 mmHg 16%
    06:00 +1°C° 0 mm 3 mps 464 mmHg 16%
    07:00 +2°C° 0 mm 3 mps 465 mmHg 16%
    08:00 +3°C° 0 mm 3 mps 466 mmHg 16%
    09:00 +5°C° 0 mm 4 mps 468 mmHg 15%
    10:00 +8°C° 0 mm 6 mps 470 mmHg 13%
    11:00 +11°C° 0 mm 8 mps 471 mmHg 11%
    12:00 +12°C° 0 mm 8 mps 471 mmHg 11%
    13:00 +13°C° 0 mm 8 mps 471 mmHg 10%
    14:00 +13°C° 0 mm 9 mps 471 mmHg 10%
    15:00 +13°C° 0 mm 8 mps 470 mmHg 11%
    16:00 +12°C° 0 mm 7 mps 469 mmHg 11%
    17:00 +11°C° 0 mm 7 mps 469 mmHg 12%
    18:00 +9°C° 0 mm 5 mps 468 mmHg 15%
    19:00 +8°C° 0 mm 3 mps 467 mmHg 18%
    20:00 +6°C° 0 mm 2 mps 466 mmHg 21%
    21:00 +5°C° 0 mm 2 mps 466 mmHg 24%
    22:00 +5°C° 0 mm 2 mps 465 mmHg 27%
    23:00 +4°C° 0 mm 2 mps 465 mmHg 30%

    Day after tomorrow, 29 May, Wednesday

    Time Temperature Precipitation Wind Pressure Humidity
    00:00 +3°C° 0 mm 2 mps 465 mmHg 30%
    01:00 +3°C° 0 mm 2 mps 465 mmHg 30%
    02:00 +3°C° 0 mm 2 mps 464 mmHg 31%
    03:00 +2°C° 0 mm 2 mps 464 mmHg 27%
    04:00 +2°C° 0 mm 2 mps 464 mmHg 24%
    05:00 +2°C° 0 mm 2 mps 463 mmHg 20%
    06:00 +3°C° 0 mm 2 mps 465 mmHg 19%
    07:00 +4°C° 0 mm 2 mps 466 mmHg 18%
    08:00 +5°C° 0 mm 2 mps 467 mmHg 17%
    09:00 +7°C° 0 mm 3 mps 468 mmHg 14%
    10:00 +10°C° 0 mm 4 mps 470 mmHg 12%
    11:00 +12°C° 0 mm 5 mps 471 mmHg 10%
    12:00 +13°C° 0 mm 6 mps 471 mmHg 9%
    13:00 +13°C° 0 mm 8 mps 471 mmHg 8%
    14:00 +15°C° 0 mm 9 mps 471 mmHg 8%
    15:00 +15°C° 0 mm 9 mps 470 mmHg 9%
    16:00 +13°C° 0 mm 8 mps 469 mmHg 10%
    17:00 +12°C° 0 mm 8 mps 468 mmHg 11%
    18:00 +10°C° 0 mm 7 mps 467 mmHg 12%
    19:00 +8°C° 0 mm 5 mps 467 mmHg 13%
    20:00 +7°C° 0 mm 3 mps 466 mmHg 14%
    21:00 +5°C° 0 mm 3 mps 465 mmHg 15%
    22:00 +4°C° 0 mm 3 mps 465 mmHg 15%
    23:00 +4°C° 0 mm 3 mps 465 mmHg 15%

    30 May, Thursday

    Time Temperature Precipitation Wind Pressure Humidity
    00:00 +3°C° 0 mm 3 mps 464 mmHg 14%
    01:00 +2°C° 0 mm 3 mps 464 mmHg 13%
    02:00 +2°C° 0 mm 3 mps 464 mmHg 12%
    03:00 +1°C° 0 mm 3 mps 463 mmHg 12%
    04:00 +1°C° 0 mm 3 mps 463 mmHg 12%
    05:00 0°C° 0 mm 3 mps 462 mmHg 13%
    06:00 +1°C° 0 mm 3 mps 463 mmHg 13%
    07:00 +2°C° 0 mm 3 mps 465 mmHg 14%
    08:00 +3°C° 0 mm 3 mps 466 mmHg 15%
    09:00 +6°C° 0 mm 4 mps 468 mmHg 12%
    10:00 +9°C° 0 mm 6 mps 470 mmHg 9%
    11:00 +12°C° 0 mm 7 mps 471 mmHg 6%
    12:00 +13°C° 0 mm 8 mps 471 mmHg 6%
    13:00 +15°C° 0 mm 8 mps 471 mmHg 6%
    14:00 +15°C° 0 mm 8 mps 470 mmHg 5%
    15:00 +14°C° 0 mm 7 mps 470 mmHg 6%
    16:00 +14°C° 0 mm 7 mps 469 mmHg 7%
    17:00 +13°C° 0 mm 6 mps 468 mmHg 8%
    18:00 +10°C° 0 mm 5 mps 467 mmHg 10%
    19:00 +8°C° 0 mm 3 mps 466 mmHg 12%
    20:00 +6°C° 0 mm 2 mps 465 mmHg 14%
    21:00 +6°C° 0 mm 2 mps 465 mmHg 14%
    22:00 +5°C° 0 mm 2 mps 465 mmHg 13%
    23:00 +4°C° 0 mm 2 mps 464 mmHg 13%

    31 May, Friday

    Time Temperature Precipitation Wind Pressure Humidity
    00:00 +3°C° 0 mm 2 mps 464 mmHg 13%
    01:00 +3°C° 0 mm 2 mps 463 mmHg 13%
    02:00 +2°C° 0 mm 2 mps 463 mmHg 13%
    03:00 +2°C° 0 mm 2 mps 463 mmHg 11%
    04:00 +1°C° 0 mm 2 mps 462 mmHg 10%
    05:00 +1°C° 0 mm 2 mps 462 mmHg 9%
    06:00 +2°C° 0 mm 2 mps 463 mmHg 9%
    07:00 +3°C° 0 mm 2 mps 465 mmHg 10%
    08:00 +5°C° 0 mm 2 mps 466 mmHg 10%
    09:00 +7°C° 0 mm 3 mps 468 mmHg 8%
    10:00 +10°C° 0 mm 4 mps 469 mmHg 7%
    11:00 +12°C° 0 mm 4 mps 471 mmHg 6%
    12:00 +13°C° 0 mm 6 mps 470 mmHg 5%
    13:00 +14°C° 0 mm 7 mps 470 mmHg 5%
    14:00 +15°C° 0 mm 8 mps 470 mmHg 5%
    15:00 +13°C° 0 mm 8 mps 469 mmHg 6%
    16:00 +12°C° 0 mm 8 mps 468 mmHg 7%
    17:00 +12°C° 0 mm 8 mps 467 mmHg 7%
    18:00 +9°C° 0 mm 6 mps 466 mmHg 9%
    19:00 +7°C° 0 mm 4 mps 465 mmHg 11%
    20:00 +5°C° 0 mm 3 mps 464 mmHg 13%
    21:00 +5°C° 0 mm 2 mps 464 mmHg 13%
    22:00 +4°C° 0 mm 2 mps 464 mmHg 13%
    23:00 +4°C° 0 mm 2 mps 464 mmHg 13%

    1 June, Saturday

    Time Temperature Precipitation Wind Pressure Humidity
    00:00 +3°C° 0 mm 2 mps 463 mmHg 12%
    01:00 +2°C° 0 mm 2 mps 462 mmHg 11%
    02:00 +2°C° 0 mm 2 mps 462 mmHg 11%
    03:00 +1°C° 0 mm 2 mps 462 mmHg 10%
    04:00 +1°C° 0 mm 2 mps 461 mmHg 9%
    05:00 -1°C° 0 mm 2 mps 461 mmHg 8%
    06:00 +2°C° 0 mm 2 mps 462 mmHg 9%
    07:00 +3°C° 0 mm 2 mps 464 mmHg 10%
    08:00 +3°C° 0 mm 3 mps 465 mmHg 11%
    09:00 +5°C° 0 mm 4 mps 467 mmHg 9%
    10:00 +8°C° 0 mm 6 mps 468 mmHg 8%
    11:00 +11°C° 0 mm 7 mps 470 mmHg 6%
    12:00 +11°C° 0 mm 8 mps 469 mmHg 6%
    13:00 +12°C° 0 mm 8 mps 469 mmHg 6%
    14:00 +13°C° 0 mm 8 mps 469 mmHg 7%
    15:00 +12°C° 0 mm 8 mps 468 mmHg 7%
    16:00 +11°C° 0 mm 7 mps 468 mmHg 8%
    17:00 +10°C° 0 mm 7 mps 467 mmHg 9%
    18:00 +8°C° 0 mm 5 mps 466 mmHg 10%
    19:00 +6°C° 0 mm 4 mps 465 mmHg 12%
    20:00 +5°C° 0 mm 2 mps 464 mmHg 13%
    21:00 +4°C° 0 mm 2 mps 464 mmHg 15%
    22:00 +3°C° 0 mm 2 mps 464 mmHg 17%
    23:00 +4°C° 0 mm 1 mps 463 mmHg 19%
    Show more